EST,Max TemperatureF,Mean TemperatureF,Min TemperatureF,Max Dew PointF,MeanDew PointF,Min DewpointF,Max Humidity, Mean Humidity, Min Humidity, Max Sea Level PressureIn, Mean Sea Level PressureIn, Min Sea Level PressureIn, Max VisibilityMiles, Mean VisibilityMiles, Min VisibilityMiles, Max Wind SpeedMPH, Mean Wind SpeedMPH, Max Gust SpeedMPH,PrecipitationIn, CloudCover, Events, WindDirDegrees
2012-12-1,57,47,37,37,33,28,70,56,42,30.34,30.29,30.24,10,10,9,12,8,17,0.00,1,,177
2012-12-2,59,52,45,52,45,36,94,76,51,30.23,30.13,30.05,10,8,4,18,10,25,0.05,6,Rain,205
2012-12-3,60,56,53,54,53,52,100,90,78,30.24,30.19,30.14,10,5,0,10,6,,0.03,8,Fog-Rain,189
2012-12-4,66,56,46,54,50,43,89,76,56,30.17,30.08,29.98,10,9,3,23,12,31,0.29,6,Rain,215
2012-12-5,45,39,30,41,29,19,86,69,55,30.38,30.26,30.13,10,10,9,13,8,24,0.00,5,,314
2012-12-6,46,36,26,27,21,19,75,56,37,30.36,30.22,30.06,10,10,10,8,3,,0.00,1,,115
2012-12-7,51,45,39,49,44,27,96,90,56,30.05,29.96,29.87,10,2,0,9,5,,0.98,8,Fog-Rain,173
2012-12-8,55,50,44,50,48,38,94,87,74,30.09,29.89,29.83,10,6,0,12,7,16,0.14,8,Fog-Rain,208
2012-12-9,55,47,39,54,41,33,94,83,71,30.13,30.00,29.77,10,9,5,14,8,20,0.11,7,Rain,99
2012-12-10,57,46,35,54,46,32,94,88,83,29.81,29.66,29.55,10,7,1,20,10,28,0.70,8,Rain-Snow,217
2012-12-11,37,35,32,32,29,27,89,79,67,30.25,30.02,29.79,10,9,3,10,7,,0.02,8,Snow,271
2012-12-12,39,33,27,25,22,20,85,67,46,30.46,30.38,30.26,10,10,10,8,5,,0.00,1,,233
2012-12-13,43,34,25,23,21,18,88,64,37,30.46,30.40,30.31,10,9,5,7,2,,0.00,0,,152
2012-12-14,48,38,28,26,23,21,78,57,37,30.33,30.28,30.24,10,10,7,12,8,,0.00,0,,198
2012-12-15,51,42,33,30,26,23,75,52,35,30.24,30.11,29.92,10,10,7,12,5,,0.01,3,Rain,137
2012-12-16,57,52,48,50,45,30,83,71,50,29.89,29.79,29.71,10,10,4,12,9,,0.02,7,Rain,174
2012-12-17,54,50,46,52,49,45,100,93,82,29.77,29.64,29.51,10,7,1,9,6,,0.74,8,Rain,179
2012-12-18,46,40,35,45,37,30,100,87,68,29.86,29.66,29.49,10,9,3,15,9,24,0.10,7,Rain,253
2012-12-19,44,40,35,37,35,32,93,82,71,30.18,29.96,29.76,10,10,6,9,6,,0.01,7,Rain,257
2012-12-20,46,41,36,43,37,32,93,84,58,30.15,29.70,29.36,10,7,2,21,11,30,0.80,5,Rain,133
2012-12-21,42,35,28,37,27,24,93,82,67,29.71,29.46,29.35,10,5,1,22,16,37,0.02,8,Rain-Snow,257
2012-12-22,30,28,27,27,22,19,93,74,64,30.12,29.92,29.67,10,8,1,20,15,34,0.01,8,Snow,281
2012-12-23,37,29,21,24,21,18,89,71,52,30.09,30.00,29.88,10,10,10,14,9,,0.00,0,,227
2012-12-24,39,32,26,36,30,21,100,87,65,30.03,29.87,29.75,10,6,0,14,5,22,0.05,5,Fog-Rain,129
2012-12-25,35,34,32,34,31,24,100,88,67,30.23,30.09,29.90,10,6,2,13,8,18,0.00,8,Rain,331
2012-12-26,32,29,26,28,26,24,100,88,76,30.17,29.79,29.56,10,5,0,18,9,28,0.00,8,Fog-Rain-Snow,49
2012-12-27,30,29,28,28,26,23,100,90,75,30.13,29.86,29.58,10,6,2,14,7,24,0.01,8,Rain-Snow,290
2012-12-28,30,28,26,23,21,20,80,74,69,30.18,30.09,29.92,10,10,10,7,4,,0.11,6,,270
2012-12-29,30,29,28,30,28,22,100,92,78,29.96,29.72,29.61,10,3,0,14,5,22,0.00,8,Fog-Snow,326
2012-12-30,28,26,25,26,22,18,89,81,75,30.39,30.21,29.93,10,8,2,20,13,29,0.00,8,Snow,264
2012-12-31,34,26,19,29,24,17,93,85,56,30.34,30.12,29.99,10,6,1,17,10,24,0.00,5,Snow,209